Regional Weather Roundup
Issued by NWS

Home | Current Version | Previous Version | Graphics & Text | Print | Product List | Glossary On
Versions: 1 2 3 4 5 6 7 8 9 10 11 12 13 14 15 16 17 18 19 20 21 22 23 24 25 26 27
000
ASUS45 KTFX 222010
RWRMT
MONTANA REGIONAL WEATHER ROUNDUP
NATIONAL WEATHER SERVICE GREAT FALLS MT
200 PM MDT MON MAY 22 2017

NOTE: "FAIR" INDICATES FEW OR NO CLOUDS BELOW 12000 FEET WITH NO
SIGNIFICANT WEATHER AND/OR OBSTRUCTIONS TO VISIBILITY.

MTZ001>007-043-222100-
WEST OF THE DIVIDE

CITY           SKY/WX    TMP DP  RH WIND       PRES   REMARKS
KALISPELL      SUNNY     72  44  36 S5        30.19F
MISSOULA       SUNNY     74  42  31 VRB6      30.19F
BUTTE          CLOUDY    66  30  26 NW10G18   30.25F
MULLAN PASS    SUNNY     62  34  35 MISG      30.32S
ANACONDA         N/A     66  36  32 NE8G17    30.23F
DEER LODGE       N/A     68  37  32 N6        30.25F
EUREKA           N/A     73  37  27 CALM      30.19F
HAMILTON         N/A     72  37  28 NW5       30.20F
LIBBY            N/A     77  30  18 SW3       30.16F
PLAINS           N/A     79  46  31 CALM      30.16
RONAN            N/A     72  40  31 W2        30.24S
$$

MTZ008-052>055-222100-
SOUTHWEST MONTANA

CITY           SKY/WX    TMP DP  RH WIND       PRES   REMARKS
BOZEMAN        CLOUDY    65  43  44 N8        30.23S
DILLON         MOSUNNY   67  35  30 N6        30.22F
ENNIS          PTSUNNY   66  36  32 N15G22    30.28S
$$

MTZ009-010-012-014-046-048-049-054-222100-
EAST SLOPES AND CENTRAL MONTANA

CITY           SKY/WX    TMP DP  RH WIND       PRES   REMARKS
CUT BANK       PTSUNNY   70  35  27 N7        30.22R
GREAT FALLS    MOSUNNY   67  36  31 NW8       30.21F
HELENA         SUNNY     73  38  27 NE10      30.21F
AUGUSTA          N/A     65  38  37 SE3       30.24S
BOWMANS CRNR     N/A     65  39  38 NE10      30.22S
CHOTEAU          N/A     70  37  30 NW7       30.24S
CONRAD           N/A     71  49  45 W5        30.22S
FAIRFIELD        N/A     67  37  33 SE6       30.21F
POWER            N/A     66  34  30 N7        30.21F
RAYNESFORD       N/A     63  39  41 W6        30.23F
ULM              N/A     65  38  36 NE3       30.22F
$$

MTZ011-013-016-021-045-047-050-051-222100-
NORTH CENTRAL MONTANA

CITY           SKY/WX    TMP DP  RH WIND       PRES   REMARKS
HAVRE          SUNNY     72  33  24 N9        30.17S
LEWISTOWN      MOSUNNY   63  32  31 N14G25    30.20S
N BAR RANCH      N/A     63  36  36 N16G28    30.22S
CHINOOK          N/A     70  36  28 N9G16     30.17S
DENTON           N/A     66  35  31 N18G29    30.16S
FORT BENTON      N/A     70  36  28 MISG      30.18S
GEYSER           N/A     64  39  39 N14       30.21F
JUDITH GAP       N/A     62  37  38 N26G36    30.20S
STANFORD         N/A     62  39  42 NW15G21   30.22S
WINIFRED         N/A     67  34  29 N17G28    30.18S
$$

MTZ017>020-022>027-061-062-222100-
NORTHEAST MONTANA

CITY           SKY/WX    TMP DP  RH WIND       PRES   REMARKS
GLASGOW        PTSUNNY   69  36  29 N16G26    30.12S
JORDAN           N/A     67  34  29 N13G26    30.13S
SIDNEY         CLOUDY    63  37  38 N16G22    30.07S
WOLF POINT     MOSUNNY   73  29  19 N14G23    30.08F
MALTA          MOSUNNY   68  36  30 NW12      30.15S
PLENTYWOOD       N/A     63  37  39 NW15G26   30.07F
POPLAR           N/A     63  34  34 N17G25    30.09R
SCOBEY           N/A     63  33  32 N21       30.09
$$

MTZ028>42-056>058-222100-
SOUTHCENTRAL AND SOUTHEAST MONTANA

CITY           SKY/WX    TMP DP  RH WIND       PRES   REMARKS
BAKER          PTSUNNY   60  36  40 N14       30.07F
BILLINGS       PTSUNNY   66  36  32 N16       30.18S
LIVINGSTON     CLOUDY    60  43  53 S17       30.26F
MILES CITY     RAIN      54  42  64 NW23G35   30.13R
BIG TIMBER     MOSUNNY   59  43  55 SW12      30.27F
EKALAKA          N/A     55  39  54 N10       30.06
FORSYTH          N/A     63  34  34 NW12G23   30.12S
LAUREL           N/A     63  41  44 CALM      30.17F
ROUNDUP          N/A     67  33  28 NW13      30.08S
$$

REGIONAL REPORTS...DAKOTAS

CITY           SKY/WX    TMP DP  RH WIND       PRES   REMARKS
WILLISTON      CLOUDY    60  39  45 NW13      30.06S
MINOT          PTSUNNY   62  37  39 NW16G24   29.97F
DICKINSON      PTSUNNY   58  33  39 N18G25    30.02R
BEACH          PTSUNNY   57  39  51 NW30G37   30.11R
TIOGA          CLOUDY    61  32  33 N16       30.05R
WATFORD CITY   CLOUDY    59  36  41 NW18G25   30.04R
BISMARCK       CLOUDY    61  36  39 N18G30    29.98S
GRAND FORKS    LGT RAIN  51  44  77 N23G30    29.87R
BUFFALO SD       N/A     60  40  47 N16G25    29.98S
RAPID CITY     CLOUDY    60  40  47 NW23G35   30.02F
$$

REGIONAL REPORTS...WYOMING/IDAHO/WASHINGTON

CITY           SKY/WX    TMP DP  RH WIND       PRES   REMARKS
GILLETTE       MOSUNNY   54  42  64 NW20G28   30.13F
SHERIDAN       MOSUNNY   59  42  53 NW21G26   30.19F
BUFFALO WY     CLOUDY    53  41  63 N20G30    30.19F
CODY           CLOUDY    52  35  52 NW10      30.26F
YELLOWSTONE LA   N/A     54  27  35 MISG      30.31S
IDAHO FALLS    MOSUNNY   70  34  26 VRB7      30.21F
SALMON         SUNNY     70  39  32 CALM      30.17F
BOISE          SUNNY     77  43  29 MISG      30.17F
SPOKANE        MOSUNNY   77  42  28 E5        30.18F
$$

REGIONAL REPORTS...ALBERTA

CITY           SKY/WX    TMP DP  RH WIND       PRES   REMARKS
EDMONTON       SUNNY     75  45  33 SW6       30.10F
CALGARY        PTSUNNY   73  37  27 SE3       30.18F
LETHBRIDGE     PTSUNNY   72  39  30 E8        30.19F
MEDICINE HAT   PTSUNNY   70  36  28 NE6G17    30.18S
WATERTON GATE    N/A     70  34  26 NE8         N/A
CARDSTON         N/A     70  39  32 N7          N/A
MILK RIVER       N/A     72  34  25 NE7         N/A
$$

REGIONAL REPORTS...SASKATCHEWAN

CITY           SKY/WX    TMP DP  RH WIND       PRES   REMARKS
SWIFT CURRENT  PTSUNNY   64  34  32 NE10G21   30.16S
REGINA         PTSUNNY   64  34  32 NE16G30   30.10S
SASKATOON      MOSUNNY   70  34  26 VRB9G17   30.16F
CYPRESS HILLS    N/A     57  32  38 NE8         N/A
VAL MARIE        N/A     63  32  31 N14         N/A
ROCKGLEN         N/A     63  36  36 N18G29      N/A
ASSINIBOIA       N/A     73  39  29 S13G21      N/A
$$




USA.gov is the U.S. government's official web portal to all federal, state and local government web resources and services.